Back to catalog

IUS R/B(2)

AliveGEO
NORAD 24740·ROCKET BODY·🇺🇸 United States

Launched Feb 23, 1997 from Cape Canaveral Space Force Station

Loading…

TLE

FreshSource: Space-Track

Epoch: Sep 13, 2026, 15:38 UTC

1 24740U 97008D   26256.65196334 -.00000350  00000-0  00000-0 0  9998
2 24740  14.6660   3.2877 0024935 200.7699 159.1472  0.99502213 26676

Track IUS R/B(2) in real time with AllMySat

Download on the App Store